Погода в Виловатове

Россия / Республика Марий Эл     56°10′34″N   46°36′21″E
темп.,
°C
ветер,
м/с
пор.,
м/с
влажн.,
%
обл.,
%
осадки,
мм/ч
давл.,
гПа
погр.,
м
8 марта, пн
пн800:00−5ююз61194100 0.9 992533
03:00−5ююз3796100 2.1 990376
06:00−6з71293100 0.6 991548
09:00−10з6128379 0.6 994376
12:00−6з578822 0.0 997596
15:00−5зюз468742 0.1 998692
18:00−8зюз3491100 0.0 99961
21:00−11з449493 0.0 100258
9 марта, вт
вт900:00−14з349766 0.0 100459
03:00−16зсз339976 0.1 100630
06:00−18зсз2210099 0.0 100820
09:00−15сз2394100 0.1 1010213
12:00−11ссз238898 0.1 1011481
15:00−10ссз348899 0.2 1012632
18:00−13с3596100 0.2 1013141
21:00−15ссз379795 0.3 1015212
10 марта, ср
ср1000:00−20с3510086 0.1 101695
03:00−23ссз489988 0.1 1017160
06:00−26ссз479891 0.0 1019127
09:00−25с479587 0.0 1020305
12:00−20с589190 0.0 1021515
15:00−18ссз578585 0.0 1022656
18:00−21ссз349389 0.0 102329
21:00−24сз239649 0.0 102420
11 марта, чт
чт1100:00−25зсз2310026 0.0 102524
03:00−25зсз3410049 0.0 102564
06:00−25з4710071 0.0 1025110
09:00−20з699580 0.0 1025273
12:00−14зсз5894100 0.4 1025486
15:00−10сз5892100 0.5 1025500
18:00−11зсз4796100 0.0 1026109
21:00−14зсз459887 0.1 102778
12 марта, пт
пт1200:00−17зсз239866 0.0 102823
03:00−18з239947 0.0 102921
06:00−19зюз339940 0.0 103026
09:00−15зюз349425 0.0 1031166
12:00−11юз358622 0.0 1030316
15:00−10ююз468711 0.0 1029347
18:00−14ююз45920 0.0 102868
21:00−16ю410920 0.0 1027154